Regional Weather Roundup
Issued by NWS

Home | Current Version | Previous Version | Graphics & Text | Print | Product List | Glossary Off
Versions: 1 2 3 4 5 6 7 8 9 10 11 12 13 14 15 16 17 18 19 20 21 22 23 24 25 26 27 28 29 30 31 32 33 34 35 36 37 38 39 40 41 42 43 44 45 46 47 48 49 50

000
ASUS43 KTOP 230908
RWRKS

WEATHER ROUNDUP FOR KANSAS
NATIONAL WEATHER SERVICE GOODLAND KS
300 AM CST THU FEB 23 2017

NOTE:  "FAIR" INDICATES FEW OR NO CLOUDS BELOW 12,000 FEET WITH NO
SIGNIFICANT WEATHER AND/OR OBSTRUCTIONS TO VISIBILITY.

KSZ001>006-013>018-027>032-041>047-231000-
NORTHWEST KANSAS

CITY           SKY/WX    TMP DP  RH WIND       PRES   REMARKS
GOODLAND       CLOUDY    40  27  59 E15       29.65F WCI  32
HAYS             N/A     47  32  56 NE14      29.65F
HILL CITY      CLOUDY    45  32  60 E13       29.69F
RUSSELL        CLOUDY    50  34  54 E20G26    29.64F
$$

KSZ061>065-074>080-084>089-231000-
SOUTHWEST KANSAS

CITY           SKY/WX    TMP DP  RH WIND       PRES   REMARKS
DODGE CITY     CLOUDY    53  34  48 E6        29.60F
ELKHART          N/A     54  28  36 W8          N/A
GARDEN CITY    CLOUDY    50  31  48 NE10      29.60F
GREAT BEND     CLOUDY    52  35  52 NE16G23   29.63F
LIBERAL        CLOUDY    54  27  35 SW6       29.63F
PRATT          CLOUDY    49  37  61 E10       29.58F
$$

KSZ066>073-081>083-090>101-231000-
SOUTHEAST KANSAS

CITY           SKY/WX    TMP DP  RH WIND       PRES   REMARKS
CHANUTE        CLEAR     51  44  77 SE9       29.63F
COFFEYVILLE    CLEAR     52  46  80 SE5       29.62F
HUTCHINSON     CLOUDY    53  38  56 N6        29.63F
MEDICINE LODGE   N/A     53  42  66 E8        29.58F
NEWTON         PTCLDY    50  41  71 E12       29.63F
PARSONS        CLEAR     50  45  83 SE5       29.63F
WICHITA INTL   MOCLDY    48  44  86 E8        29.60F
WICHITA JABRA  PTCLDY    48  44  86 E10       29.62F
WICHITA MCCONL MOCLDY    50  43  77 NE8       29.62F
WINFIELD       CLOUDY    46  41  82 CALM      29.62F
$$

KSZ007>012-019>026-033>040-048>060-102>105-231000-
NORTHEAST KANSAS

CITY           SKY/WX    TMP DP  RH WIND       PRES   REMARKS
CONCORDIA      CLOUDY    48  38  68 E12       29.70R
EMPORIA        PTCLDY    54  38  54 E12       29.65R
LAWRENCE       MOCLDY    53  39  59 NE8       29.71S
MANHATTAN      CLOUDY    52  38  58 NE14      29.69S
MARYSVILLE     CLOUDY    45  37  76 NE12G17   29.71S
OLATHE IND     CLOUDY    55  39  54 NE14G23   29.70F
OLATHE EXE     CLOUDY    54  40  59 NE13      29.70F
SALINA         CLOUDY    54  37  52 E10       29.66F
TOPEKA BILLARD CLOUDY    52  40  63 NE12      29.67F
TOPEKA FORBES  MOCLDY    54  38  54 NE10      29.66F
$$




USA.gov is the U.S. government's official web portal to all federal, state and local government web resources and services.